Time,TemperatureF,DewpointF,PressureIn,WindDirection,WindDirectionDegrees,WindSpeedMPH,WindSpeedGustMPH,Humidity,HourlyPrecipIn,Conditions,Clouds,dailyrainin,SoftwareType,DateUTC
2013-06-28 00:02:00,76.0,66.0,29.66,WSW,238,1.0,7.0,72,0.00,,,0.00,,2013-06-28 04:02:00,
2013-06-28 00:12:00,75.0,66.0,29.67,SW,228,2.0,5.0,74,0.00,,,0.00,,2013-06-28 04:12:00,
2013-06-28 00:33:00,76.0,67.0,29.67,SW,229,4.0,7.0,74,0.00,,,0.00,,2013-06-28 04:33:00,
2013-06-28 00:43:00,76.0,67.0,29.66,WSW,242,4.0,9.0,74,0.00,,,0.00,,2013-06-28 04:43:00,
2013-06-28 01:01:00,75.0,67.0,29.67,SSE,155,0.0,8.0,77,0.00,,,0.00,,2013-06-28 05:01:00,
2013-06-28 01:22:00,74.0,67.0,29.67,SW,225,1.0,8.0,78,0.00,,,0.00,,2013-06-28 05:22:00,
2013-06-28 01:53:00,74.0,68.0,29.68,SW,228,2.0,6.0,81,0.00,,,0.00,,2013-06-28 05:53:00,
2013-06-28 02:02:00,73.0,67.0,29.67,SW,227,3.0,6.0,82,0.00,,,0.00,,2013-06-28 06:02:00,
2013-06-28 02:12:00,73.0,67.0,29.67,WNW,284,4.0,9.0,82,0.00,,,0.00,,2013-06-28 06:12:00,
2013-06-28 02:33:00,73.0,68.0,29.67,SW,218,3.0,7.0,83,0.00,,,0.00,,2013-06-28 06:33:00,
2013-06-28 02:42:00,72.0,67.0,29.67,SW,227,2.0,6.0,83,0.00,,,0.00,,2013-06-28 06:42:00,
2013-06-28 02:52:00,72.0,67.0,29.66,SW,236,0.0,7.0,83,0.00,,,0.00,,2013-06-28 06:52:00,
2013-06-28 03:01:00,72.0,67.0,29.66,SW,236,0.0,7.0,83,0.00,,,0.00,,2013-06-28 07:01:00,
2013-06-28 03:11:00,72.0,66.0,29.66,West,261,2.0,6.0,82,0.00,,,0.00,,2013-06-28 07:11:00,
2013-06-28 03:33:00,72.0,66.0,29.65,SW,225,2.0,7.0,82,0.00,,,0.00,,2013-06-28 07:33:00,
2013-06-28 03:43:00,71.0,65.0,29.65,SW,226,0.0,6.0,82,0.00,,,0.00,,2013-06-28 07:43:00,
2013-06-28 04:02:00,71.0,65.0,29.65,SW,229,1.0,5.0,82,0.00,,,0.00,,2013-06-28 08:02:00,
2013-06-28 04:11:00,71.0,65.0,29.65,WSW,248,4.0,7.0,82,0.00,,,0.00,,2013-06-28 08:11:00,
2013-06-28 04:22:00,71.0,65.0,29.65,WSW,248,4.0,7.0,82,0.00,,,0.00,,2013-06-28 08:22:00,
2013-06-28 04:33:00,70.0,65.0,29.65,WSW,246,1.0,8.0,83,0.00,,,0.00,,2013-06-28 08:33:00,
2013-06-28 04:43:00,70.0,65.0,29.65,West,260,2.0,9.0,83,0.00,,,0.00,,2013-06-28 08:43:00,
2013-06-28 04:52:00,70.0,65.0,29.65,West,260,2.0,9.0,83,0.00,,,0.00,,2013-06-28 08:52:00,
2013-06-28 05:02:00,69.0,64.0,29.65,SW,217,3.0,8.0,83,0.00,,,0.00,,2013-06-28 09:02:00,
2013-06-28 05:22:00,69.0,64.0,29.65,SW,227,3.0,9.0,84,0.00,,,0.00,,2013-06-28 09:22:00,
2013-06-28 05:33:00,69.0,64.0,29.65,SW,225,3.0,8.0,84,0.00,,,0.00,,2013-06-28 09:33:00,
2013-06-28 05:52:00,69.0,64.0,29.65,WSW,246,2.0,8.0,84,0.00,,,0.00,,2013-06-28 09:52:00,
2013-06-28 06:22:00,68.0,63.0,29.65,SW,215,1.0,6.0,83,0.00,,,0.00,,2013-06-28 10:22:00,
2013-06-28 06:42:00,68.0,63.0,29.65,SW,232,3.0,6.0,84,0.00,,,0.00,,2013-06-28 10:42:00,
2013-06-28 06:52:00,68.0,63.0,29.65,SW,232,3.0,6.0,84,0.00,,,0.00,,2013-06-28 10:52:00,
2013-06-28 07:11:00,68.0,63.0,29.65,WSW,252,3.0,7.0,84,0.00,,,0.00,,2013-06-28 11:11:00,
2013-06-28 07:22:00,68.0,63.0,29.65,West,273,2.0,6.0,84,0.00,,,0.00,,2013-06-28 11:22:00,
2013-06-28 07:43:00,68.0,63.0,29.65,WNW,295,1.0,6.0,83,0.00,,,0.00,,2013-06-28 11:43:00,
2013-06-28 07:53:00,68.0,63.0,29.65,WNW,295,1.0,6.0,83,0.00,,,0.00,,2013-06-28 11:53:00,
2013-06-28 08:22:00,70.0,63.0,29.65,SW,227,3.0,7.0,79,0.00,,,0.00,,2013-06-28 12:22:00,
2013-06-28 08:34:00,70.0,62.0,29.65,West,271,2.0,11.0,77,0.00,,,0.00,,2013-06-28 12:34:00,
2013-06-28 08:43:00,71.0,64.0,29.66,SW,236,2.0,9.0,78,0.00,,,0.00,,2013-06-28 12:43:00,
2013-06-28 09:11:00,71.0,63.0,29.66,WNW,286,3.0,8.0,76,0.00,,,0.00,,2013-06-28 13:11:00,
2013-06-28 09:23:00,72.0,64.0,29.66,WNW,288,3.0,10.0,76,0.00,,,0.00,,2013-06-28 13:23:00,
2013-06-28 09:43:00,73.0,65.0,29.65,WNW,284,3.0,7.0,75,0.00,,,0.00,,2013-06-28 13:43:00,
2013-06-28 09:53:00,73.0,64.0,29.65,NW,305,3.0,8.0,73,0.00,,,0.00,,2013-06-28 13:53:00,
2013-06-28 10:02:00,74.0,65.0,29.65,WNW,292,4.0,10.0,73,0.00,,,0.00,,2013-06-28 14:02:00,
2013-06-28 10:33:00,74.0,64.0,29.65,SW,220,4.0,11.0,72,0.00,,,0.00,,2013-06-28 14:33:00,
2013-06-28 10:44:00,75.0,65.0,29.65,West,272,6.0,12.0,72,0.00,,,0.00,,2013-06-28 14:44:00,
2013-06-28 10:53:00,75.0,65.0,29.65,West,272,6.0,12.0,72,0.00,,,0.00,,2013-06-28 14:53:00,
2013-06-28 11:02:00,75.0,66.0,29.65,SW,230,3.0,9.0,73,0.00,,,0.00,,2013-06-28 15:02:00,
2013-06-28 11:24:00,76.0,66.0,29.65,WNW,300,5.0,12.0,71,0.00,,,0.00,,2013-06-28 15:24:00,
2013-06-28 11:34:00,77.0,66.0,29.65,SW,235,4.0,8.0,70,0.00,,,0.00,,2013-06-28 15:34:00,
2013-06-28 11:52:00,77.0,66.0,29.65,NNW,338,4.0,10.0,68,0.00,,,0.00,,2013-06-28 15:52:00,
2013-06-28 12:02:00,78.0,67.0,29.65,WNW,302,4.0,8.0,69,0.00,,,0.00,,2013-06-28 16:02:00,
2013-06-28 12:25:00,78.0,66.0,29.64,SW,227,6.0,14.0,67,0.00,,,0.00,,2013-06-28 16:25:00,
2013-06-28 12:33:00,78.0,66.0,29.65,SW,215,5.0,12.0,66,0.00,,,0.00,,2013-06-28 16:33:00,
2013-06-28 12:44:00,79.0,66.0,29.64,WSW,244,4.0,11.0,65,0.00,,,0.00,,2013-06-28 16:44:00,
2013-06-28 12:53:00,79.0,66.0,29.64,WSW,244,4.0,11.0,65,0.00,,,0.00,,2013-06-28 16:53:00,
2013-06-28 13:02:00,79.0,66.0,29.64,WSW,244,4.0,11.0,65,0.00,,,0.00,,2013-06-28 17:02:00,
2013-06-28 13:11:00,79.0,66.0,29.64,WSW,244,4.0,11.0,65,0.00,,,0.00,,2013-06-28 17:11:00,
2013-06-28 13:22:00,80.0,63.0,29.64,NW,306,5.0,13.0,57,0.00,,,0.00,,2013-06-28 17:22:00,
2013-06-28 13:44:00,80.0,63.0,29.63,NNW,331,7.0,12.0,57,0.00,,,0.00,,2013-06-28 17:44:00,
2013-06-28 13:52:00,80.0,63.0,29.63,NNW,331,7.0,12.0,57,0.00,,,0.00,,2013-06-28 17:52:00,
2013-06-28 14:02:00,81.0,64.0,29.62,WNW,298,5.0,9.0,56,0.00,,,0.00,,2013-06-28 18:02:00,
2013-06-28 14:11:00,81.0,64.0,29.62,WNW,298,5.0,9.0,56,0.00,,,0.00,,2013-06-28 18:11:00,
2013-06-28 14:22:00,81.0,62.0,29.62,West,277,6.0,13.0,53,0.00,,,0.00,,2013-06-28 18:22:00,
2013-06-28 14:43:00,81.0,64.0,29.61,WSW,243,6.0,13.0,56,0.00,,,0.00,,2013-06-28 18:43:00,
2013-06-28 14:52:00,82.0,62.0,29.60,WSW,237,5.0,15.0,51,0.00,,,0.00,,2013-06-28 18:52:00,
2013-06-28 15:01:00,82.0,61.0,29.60,NNW,330,5.0,11.0,49,0.00,,,0.00,,2013-06-28 19:01:00,
2013-06-28 15:11:00,82.0,61.0,29.60,NNW,330,5.0,11.0,49,0.00,,,0.00,,2013-06-28 19:11:00,
2013-06-28 15:22:00,82.0,61.0,29.60,NNW,330,5.0,11.0,49,0.00,,,0.00,,2013-06-28 19:22:00,
2013-06-28 15:33:00,81.0,63.0,29.58,WNW,290,6.0,11.0,54,0.00,,,0.00,,2013-06-28 19:33:00,
2013-06-28 15:43:00,81.0,62.0,29.58,SW,235,7.0,15.0,53,0.00,,,0.00,,2013-06-28 19:43:00,
2013-06-28 15:53:00,81.0,62.0,29.58,SW,235,7.0,15.0,53,0.00,,,0.00,,2013-06-28 19:53:00,
2013-06-28 16:22:00,78.0,63.0,29.59,SW,226,6.0,14.0,60,0.00,,,0.00,,2013-06-28 20:22:00,
2013-06-28 16:33:00,74.0,62.0,29.59,SW,219,7.0,12.0,67,0.00,,,0.00,,2013-06-28 20:33:00,
2013-06-28 16:43:00,77.0,66.0,29.57,WSW,238,6.0,12.0,68,0.00,,,0.00,,2013-06-28 20:43:00,
2013-06-28 16:52:00,77.0,66.0,29.57,WSW,238,6.0,12.0,68,0.00,,,0.00,,2013-06-28 20:52:00,
2013-06-28 17:23:00,81.0,64.0,29.57,WNW,302,3.0,10.0,57,0.00,,,0.00,,2013-06-28 21:23:00,
2013-06-28 17:34:00,80.0,62.0,29.57,NW,324,6.0,11.0,55,0.00,,,0.00,,2013-06-28 21:34:00,
2013-06-28 17:53:00,79.0,61.0,29.57,WNW,292,5.0,13.0,54,0.00,,,0.00,,2013-06-28 21:53:00,
2013-06-28 18:22:00,78.0,60.0,29.57,SW,228,4.0,9.0,54,0.00,,,0.00,,2013-06-28 22:22:00,
2013-06-28 18:34:00,78.0,62.0,29.57,SW,232,3.0,7.0,59,0.00,,,0.00,,2013-06-28 22:34:00,
2013-06-28 18:52:00,79.0,63.0,29.57,NNE,15,5.0,11.0,59,0.00,,,0.00,,2013-06-28 22:52:00,
2013-06-28 19:02:00,79.0,65.0,29.57,NNE,20,1.0,7.0,63,0.00,,,0.00,,2013-06-28 23:02:00,
2013-06-28 19:11:00,79.0,65.0,29.57,NNE,20,1.0,7.0,63,0.00,,,0.00,,2013-06-28 23:11:00,
2013-06-28 19:23:00,80.0,66.0,29.57,NNE,19,0.0,5.0,62,0.00,,,0.00,,2013-06-28 23:23:00,
2013-06-28 19:34:00,80.0,61.0,29.57,WSW,246,3.0,10.0,52,0.00,,,0.00,,2013-06-28 23:34:00,
2013-06-28 19:43:00,80.0,59.0,29.58,NNW,327,5.0,11.0,49,0.00,,,0.00,,2013-06-28 23:43:00,
2013-06-28 19:53:00,80.0,59.0,29.58,NNW,327,5.0,11.0,49,0.00,,,0.00,,2013-06-28 23:53:00,
2013-06-28 20:02:00,80.0,62.0,29.58,WNW,300,2.0,9.0,54,0.00,,,0.00,,2013-06-29 00:02:00,
2013-06-28 20:11:00,78.0,57.0,29.58,NW,319,3.0,9.0,49,0.00,,,0.00,,2013-06-29 00:11:00,
2013-06-28 20:23:00,78.0,57.0,29.58,NW,319,3.0,9.0,49,0.00,,,0.00,,2013-06-29 00:23:00,
2013-06-28 20:33:00,77.0,58.0,29.58,NW,321,3.0,9.0,52,0.00,,,0.00,,2013-06-29 00:33:00,
2013-06-28 20:42:00,77.0,58.0,29.58,NW,321,3.0,9.0,52,0.00,,,0.00,,2013-06-29 00:42:00,
2013-06-28 20:52:00,77.0,58.0,29.58,NW,321,3.0,9.0,52,0.00,,,0.00,,2013-06-29 00:52:00,
2013-06-28 21:01:00,77.0,58.0,29.58,NW,321,3.0,9.0,52,0.00,,,0.00,,2013-06-29 01:01:00,
2013-06-28 21:11:00,77.0,58.0,29.58,NW,321,3.0,9.0,52,0.00,,,0.00,,2013-06-29 01:11:00,
2013-06-28 21:22:00,73.0,62.0,29.60,NNW,327,6.0,17.0,69,0.00,,,0.00,,2013-06-29 01:22:00,
2013-06-28 21:32:00,73.0,62.0,29.60,NNW,327,6.0,17.0,69,0.00,,,0.00,,2013-06-29 01:32:00,
2013-06-28 21:42:00,73.0,62.0,29.60,NNW,327,6.0,17.0,69,0.00,,,0.00,,2013-06-29 01:42:00,
2013-06-28 21:52:00,73.0,62.0,29.60,NNW,327,6.0,17.0,69,0.00,,,0.00,,2013-06-29 01:52:00,
2013-06-28 22:01:00,66.0,62.0,29.61,SW,218,0.0,6.0,87,0.02,,,0.02,,2013-06-29 02:01:00,
2013-06-28 22:11:00,66.0,62.0,29.61,SW,218,0.0,6.0,87,0.02,,,0.02,,2013-06-29 02:11:00,
2013-06-28 22:21:00,66.0,62.0,29.61,SW,218,0.0,6.0,87,0.02,,,0.02,,2013-06-29 02:21:00,
2013-06-28 22:31:00,66.0,62.0,29.61,SW,218,0.0,6.0,87,0.02,,,0.02,,2013-06-29 02:31:00,
2013-06-28 22:41:00,66.0,62.0,29.61,SW,218,0.0,6.0,87,0.02,,,0.02,,2013-06-29 02:41:00,